Location: Caracas
(10.5033°N, 66.8422°W)
Time: 15:37:34
(UTC-04:00)

Vanguard 2 - All Passes

Search period start: 17 February 2018 00:00
Search period end: 27 February 2018 00:00
Orbit: 553 x 2939 km, 32.9° (Epoch: 16 February)

Date Brightness Start Highest point End Pass type
(mag) Time Alt. Az. Time Alt. Az. Time Alt. Az.
17 Feb - 00:18:32 10° N 00:20:31 13° NNE 00:22:37 10° ENE night (unlit)
17 Feb - 02:24:33 10° WNW 02:28:50 73° SSW 02:35:03 10° SE visible
17 Feb - 04:35:01 10° WSW 04:38:38 15° SSW 04:43:10 10° S visible
17 Feb - 11:24:17 10° S 11:28:29 11° SSE 11:32:36 10° SE daylight
17 Feb - 13:29:07 10° SSW 13:43:52 33° SSE 13:55:22 10° E daylight
17 Feb - 15:40:26 10° SW 15:56:34 79° SE 16:06:32 10° ENE daylight
17 Feb - 17:56:02 10° W 18:07:03 37° NNW 18:14:02 10° NNE daylight
18 Feb - 00:35:32 10° NNW 00:38:44 23° NNE 00:42:14 10° E night (unlit)
18 Feb - 02:42:52 10° W 02:47:01 40° SSW 02:52:55 10° SE visible
18 Feb - 11:38:48 10° S 11:48:04 16° SSE 11:56:53 10° ESE daylight
18 Feb - 13:46:29 10° SSW 14:02:36 43° SSE 14:14:37 10° E daylight
18 Feb - 15:58:52 10° WSW 16:14:51 81° NW 16:24:38 10° NE daylight
18 Feb - 18:15:49 10° W 18:25:18 28° NNW 18:31:41 10° NNE daylight
19 Feb - 00:53:04 10° NW 00:56:49 41° NNE 01:01:09 10° ESE night (unlit)
19 Feb - 03:01:39 10° W 03:05:21 23° SSW 03:10:17 10° SSE visible
19 Feb - 11:55:03 10° SSW 12:07:18 22° SSE 12:18:33 10° ESE daylight
19 Feb - 14:04:06 10° SW 14:21:11 56° SE 14:33:26 10° ENE daylight
19 Feb - 16:17:39 10° WSW 16:33:04 63° NW 16:42:35 10° NE daylight
19 Feb - 18:35:58 10° WNW 18:43:43 21° NNW 18:49:17 10° NNE daylight
19 Feb - 23:05:09 10° N 23:06:09 11° NNE 23:07:08 10° NNE night (unlit)
20 Feb - 01:10:56 10° NW 01:14:51 84° NE 01:19:35 10° ESE night (unlit)
20 Feb - 03:21:21 10° SW 03:23:49 13° SSW 03:26:45 10° S visible
20 Feb - 12:11:53 10° SSW 12:26:15 30° SSE 12:39:00 10° E daylight
20 Feb - 14:22:02 10° SW 14:39:39 71° SE 14:51:55 10° ENE daylight
20 Feb - 16:36:50 10° WSW 16:51:17 49° NNW 17:00:26 10° NE daylight
20 Feb - 18:56:22 10° WNW 19:02:18 17° NNW 19:06:53 10° NNE visible
20 Feb - 23:21:41 10° NNW 23:24:35 17° NNE 23:27:18 10° ENE night (unlit)
21 Feb - 01:29:07 10° WNW 01:32:56 48° SSW 01:37:33 10° SE night (unlit)
21 Feb - 10:23:52 10° S 10:30:16 13° SSE 10:36:49 10° SE daylight
21 Feb - 12:29:04 10° SSW 12:44:58 39° SE 12:58:40 10° E daylight
21 Feb - 14:40:15 10° SW 14:58:01 88° SE 15:10:10 10° ENE daylight
21 Feb - 16:56:23 10° W 17:09:35 38° NNW 17:18:13 10° NE daylight
21 Feb - 19:16:47 10° NW 19:21:05 14° NNW 19:24:36 10° N visible
21 Feb - 23:39:06 10° NW 23:42:51 30° NNE 23:46:23 10° E night (unlit)
22 Feb - 01:47:46 10° W 01:51:05 24° SSW 01:55:01 10° SSE night (unlit)
22 Feb - 10:39:12 10° S 10:49:30 18° SSE 11:00:01 10° ESE daylight
22 Feb - 12:46:31 10° SW 13:03:32 50° SE 13:17:47 10° ENE daylight
22 Feb - 14:58:47 10° WSW 15:16:20 75° NW 15:28:14 10° NE daylight
22 Feb - 17:16:18 10° W 17:28:03 30° NNW 17:36:00 10° NNE daylight
22 Feb - 19:36:57 10° NNW 19:39:59 12° NNW 19:42:37 10° N visible
22 Feb - 21:49:39 10° N 21:51:36 12° NNE 21:53:21 10° NNE visible
22 Feb - 23:56:52 10° NW 00:01:00 58° NNE 00:04:57 10° ESE night (unlit)
23 Feb - 02:07:22 10° WSW 02:09:22 13° SSW 02:11:33 10° S night (unlit)
23 Feb - 10:55:39 10° SSW 11:08:25 25° SE 11:21:19 10° E daylight
23 Feb - 13:04:14 10° SW 13:22:00 64° SE 13:36:30 10° ENE daylight
23 Feb - 15:17:42 10° WSW 15:34:39 60° NNW 15:46:13 10° NE daylight
23 Feb - 17:36:30 10° WNW 17:46:41 25° NNW 17:53:51 10° NNE daylight
23 Feb - 19:56:19 10° NNW 19:58:58 12° N 20:01:16 10° NNE visible
23 Feb - 22:06:44 10° NNW 22:10:14 17° NNE 22:13:08 10° ENE visible
24 Feb - 00:14:56 10° WNW 00:19:04 67° SW 00:23:04 10° SE night (unlit)
24 Feb - 11:12:34 10° SSW 11:27:04 34° SE 11:41:34 10° E daylight
24 Feb - 13:22:15 10° SW 13:40:24 79° SE 13:54:56 10° ENE daylight
24 Feb - 15:36:58 10° W 15:53:04 48° NNW 16:04:08 10° NE daylight
24 Feb - 17:56:49 10° WNW 18:05:29 21° NNW 18:11:51 10° NNE daylight
24 Feb - 20:14:45 10° NNW 20:17:55 13° N 20:20:36 10° NNE visible
24 Feb - 22:24:15 10° NW 22:28:43 26° NNE 22:32:16 10° E night (unlit)
25 Feb - 00:33:26 10° W 00:37:05 31° SW 00:40:43 10° SSE night (unlit)
25 Feb - 09:25:08 10° S 09:31:55 14° SE 09:39:15 10° ESE daylight
25 Feb - 11:29:49 10° SSW 11:45:34 44° SE 12:01:06 10° ENE daylight
25 Feb - 13:40:32 10° WSW 13:58:47 85° NW 14:13:11 10° NE daylight
25 Feb - 15:56:37 10° W 16:11:35 39° NNW 16:22:03 10° NE daylight
25 Feb - 18:17:00 10° NW 18:24:27 18° NNW 18:30:04 10° NNE daylight
25 Feb - 20:32:41 10° NNW 20:36:50 15° N 20:40:08 10° NE visible
25 Feb - 22:42:01 10° NW 22:47:04 45° NNE 22:50:55 10° ESE night (unlit)
26 Feb - 00:52:39 10° WSW 00:55:07 16° SW 00:57:38 10° S night (unlit)
26 Feb - 09:40:38 10° S 09:50:47 20° SE 10:02:03 10° ESE daylight
26 Feb - 11:47:21 10° SW 12:03:58 56° SE 12:20:08 10° ENE daylight
26 Feb - 13:59:09 10° WSW 14:17:11 70° NNW 14:31:17 10° NE daylight
26 Feb - 16:16:35 10° W 16:30:17 32° NNW 16:40:01 10° NE daylight
26 Feb - 18:36:46 10° NW 18:43:31 17° N 18:48:40 10° NNE daylight
26 Feb - 20:50:29 10° NNW 20:55:38 20° NNE 20:59:29 10° ENE visible
26 Feb - 23:00:03 10° NW 23:05:12 86° NNE 23:09:12 10° ESE night (unlit)
